Land O' Lakes, WI

2:23 PM CDT on August 20, 2017 (GMT -0500)
Kings Land O'Lakes

Weather History for KLNL - April, 2014

Change the Weather History Date:

Monday, April 21, 2014

  Actual Average (KEGV) Record (KEGV)
Temperature  
Mean Temperature 48 °F -  
Max Temperature 66 °F 51 °F 73 °F (2007)
Min Temperature 29 °F 27 °F 17 °F (2013)
Degree Days  
Heating Degree Days 18    
Moisture  
Dew Point 35 °F    
Average Humidity 74    
Maximum Humidity 100    
Minimum Humidity 22    
Precipitation  
Precipitation 0.00 in - - ()
Sea Level Pressure  
Sea Level Pressure 29.89 in    
Wind  
Wind Speed 4 mph (WNW)    
Max Wind Speed 20 mph    
Max Gust Speed 26 mph    
Visibility 9 miles    
Events Fog    
Averages and records for this station are not official NWS values.
T = Trace of Precipitation, MM = Missing Value Source: NWS Daily Summary

Daily Weather History Graph

Daily Weather History Graph

Search for Another Location

Airport or City:

Trip Planner

Search our weather history database for the weather conditions in past years. The results will help you decide how hot, cold, wet, or windy it might be!

Date:

Astronomy

Apr. 21, 2014 Rise Set
Actual Time 5:59 AM CDT 7:52 PM CDT
Civil Twilight 5:27 AM CDT 8:24 PM CDT
Nautical Twilight 4:48 AM CDT 9:03 PM CDT
Astronomical Twilight 4:05 AM CDT 9:46 PM CDT
Moon 1:26 AM CDT (4/21) 11:22 AM CDT (4/21)
Length of Visible Light 14h 56m
Length of Day
13h 52m
Waning Gibbous, 57% of the Moon is Illuminated
Apr 21
Waning Gibbous
Apr 22
Last Quarter
Apr 29
New
May 6
First Quarter
May 14
Full

Hourly Weather History & Observations

Time (CDT) Temp. Windchill Dew Point Humidity Pressure Visibility Wind Dir Wind Speed Gust Speed Precip Events Conditions
12:15 AM 31.1 °F - 29.5 °F 94% 30.01 in 10.0 mi Calm Calm - N/A   Clear
12:35 AM 31.3 °F - 29.8 °F 94% 30.00 in 10.0 mi Calm Calm - N/A   Clear
12:55 AM 30.9 °F - 29.1 °F 93% 29.99 in 10.0 mi Calm Calm - N/A   Clear
1:15 AM 30.7 °F - 28.9 °F 93% 29.99 in 10.0 mi Calm Calm - N/A   Clear
1:35 AM 29.8 °F - 28.6 °F 95% 29.99 in 10.0 mi Calm Calm - N/A   Clear
1:55 AM 30.0 °F - 28.8 °F 95% 29.98 in 10.0 mi Calm Calm - N/A   Clear
2:15 AM 30.4 °F - 29.3 °F 96% 29.97 in 10.0 mi Calm Calm - N/A   Clear
2:35 AM 30.2 °F - 28.6 °F 94% 29.97 in 10.0 mi Calm Calm - N/A   Clear
2:55 AM 30.0 °F - 28.8 °F 95% 29.97 in 10.0 mi Calm Calm - N/A   Clear
3:15 AM 30.2 °F - 28.9 °F 95% 29.96 in 10.0 mi Calm Calm - N/A   Clear
3:35 AM 29.7 °F - 28.2 °F 94% 29.96 in 10.0 mi Calm Calm - N/A   Clear
3:55 AM 29.5 °F - 28.0 °F 94% 29.95 in 10.0 mi Calm Calm - N/A   Clear
4:15 AM 29.3 °F - 28.0 °F 95% 29.95 in 10.0 mi Calm Calm - N/A   Clear
4:35 AM 29.5 °F - 28.4 °F 96% 29.94 in 10.0 mi Calm Calm - N/A   Clear
5:15 AM 30.4 °F - 28.8 °F 94% 29.94 in 10.0 mi Calm Calm - N/A   Clear
5:35 AM 29.3 °F - 28.2 °F 96% 29.94 in 10.0 mi Calm Calm - N/A   Scattered Clouds
5:55 AM 29.8 °F - 28.2 °F 94% 29.93 in 10.0 mi Calm Calm - N/A   Mostly Cloudy
6:35 AM 31.1 °F - 30.0 °F 96% 29.92 in 0.5 mi Calm Calm - N/A Fog Light Freezing Fog
6:50 AM 31.6 °F - 31.1 °F 98% 29.91 in 0.2 mi Calm Calm - N/A Fog Light Freezing Fog
7:15 AM 33.8 °F - 32.0 °F 93% 29.91 in 0.2 mi Calm Calm - N/A Fog Fog
7:20 AM 32.9 °F - 32.7 °F 99% 29.91 in 0.2 mi Calm Calm - N/A Fog Fog
7:35 AM 35.2 °F - 35.2 °F 100% 29.90 in 0.2 mi Calm Calm - N/A Fog Fog
7:55 AM 37.0 °F - 37.0 °F 100% 29.90 in 0.2 mi Calm Calm - N/A Fog Fog
8:15 AM 38.7 °F - 38.7 °F 100% 29.89 in 0.2 mi Calm Calm - N/A Fog Fog
8:35 AM 40.3 °F - 40.3 °F 100% 29.89 in 0.8 mi Calm Calm - N/A   Overcast
8:55 AM 42.1 °F - 42.1 °F 100% 29.89 in 10.0 mi Calm Calm - N/A   Scattered Clouds
9:15 AM 43.3 °F - 43.3 °F 100% 29.89 in 10.0 mi Calm Calm - N/A   Clear
9:35 AM 45.3 °F - 45.3 °F 100% 29.87 in 10.0 mi Calm Calm - N/A   Clear
9:55 AM 47.5 °F - 47.5 °F 100% 29.87 in 10.0 mi SW 4.6 mph - N/A   Mostly Cloudy
10:15 AM 50.9 °F - 47.3 °F 87% 29.87 in 7.0 mi WSW 4.6 mph - N/A   Overcast
10:35 AM 51.8 °F - 49.1 °F 90% 29.86 in 4.0 mi WSW 3.5 mph - N/A   Overcast
10:55 AM 53.6 °F - 49.3 °F 85% 29.85 in 4.0 mi WSW 3.5 mph - N/A   Haze
11:15 AM 56.7 °F - 50.0 °F 78% 29.85 in 7.0 mi WSW 5.8 mph - N/A   Mostly Cloudy
11:35 AM 59.4 °F - 50.9 °F 74% 29.85 in 10.0 mi WNW 9.2 mph 16.1 mph N/A   Mostly Cloudy
11:55 AM 58.8 °F - 51.1 °F 75% 29.84 in 10.0 mi West 5.8 mph - N/A   Mostly Cloudy
12:15 PM 61.0 °F - 50.9 °F 69% 29.83 in 10.0 mi SW 6.9 mph - N/A   Mostly Cloudy
12:35 PM 60.6 °F - 50.7 °F 70% 29.82 in 10.0 mi SSW 5.8 mph - N/A   Scattered Clouds
12:55 PM 62.1 °F - 49.8 °F 64% 29.82 in 10.0 mi WSW 5.8 mph - N/A   Clear
1:15 PM 63.5 °F - 47.3 °F 56% 29.82 in 10.0 mi West 11.5 mph - N/A   Scattered Clouds
1:35 PM 63.3 °F - 46.4 °F 54% 29.81 in 10.0 mi NW 6.9 mph - N/A   Scattered Clouds
1:55 PM 64.6 °F - 45.9 °F 51% 29.80 in 10.0 mi WNW 9.2 mph - N/A   Scattered Clouds
2:15 PM 65.7 °F - 42.3 °F 43% 29.80 in 10.0 mi West 9.2 mph 18.4 mph N/A   Scattered Clouds
2:35 PM 65.5 °F - 34.9 °F 32% 29.80 in 10.0 mi NNW 11.5 mph 16.1 mph N/A   Clear
2:55 PM 65.5 °F - 32.7 °F 30% 29.80 in 10.0 mi WNW 10.4 mph - N/A   Clear
3:15 PM 66.2 °F - 29.1 °F 25% 29.80 in 10.0 mi West 11.5 mph 18.4 mph N/A   Clear
3:35 PM 66.2 °F - 27.3 °F 23% 29.79 in 10.0 mi WNW 9.2 mph 19.6 mph N/A   Clear
3:55 PM 66.0 °F - 26.2 °F 22% 29.79 in 10.0 mi West 11.5 mph 19.6 mph N/A   Clear
4:15 PM 65.3 °F - 29.5 °F 26% 29.79 in 10.0 mi NW 13.8 mph 21.9 mph N/A   Clear
5:15 PM 59.4 °F - 33.4 °F 38% 29.81 in 10.0 mi NNW 16.1 mph 21.9 mph N/A   Clear
5:35 PM 58.1 °F - 34.7 °F 41% 29.82 in 10.0 mi NNW 13.8 mph 24.2 mph N/A   Clear
5:55 PM 56.7 °F - 34.7 °F 44% 29.83 in 10.0 mi NW 15.0 mph 25.3 mph N/A   Clear
6:15 PM 54.0 °F - 34.5 °F 48% 29.84 in 10.0 mi NW 9.2 mph 24.2 mph N/A   Clear
6:35 PM 51.4 °F - 33.3 °F 50% 29.85 in 10.0 mi NNW 19.6 mph 26.5 mph N/A   Scattered Clouds
6:55 PM 49.5 °F - 32.5 °F 52% 29.86 in 10.0 mi NNW 9.2 mph 25.3 mph N/A   Clear
7:15 PM 46.9 °F - 32.0 °F 56% 29.88 in 10.0 mi NNW 16.1 mph 25.3 mph N/A   Clear
7:35 PM 44.6 °F 37.8 °F 31.3 °F 60% 29.90 in 10.0 mi NW 15.0 mph 25.3 mph N/A   Clear
7:55 PM 42.6 °F 35.2 °F 30.7 °F 63% 29.91 in 10.0 mi NNW 15.0 mph 21.9 mph N/A   Clear
8:15 PM 41.5 °F 36.4 °F 30.2 °F 64% 29.91 in 10.0 mi NNW 8.1 mph 17.3 mph N/A   Clear
8:35 PM 40.5 °F 34.1 °F 30.2 °F 67% 29.91 in 10.0 mi NNW 10.4 mph 16.1 mph N/A   Clear
8:55 PM 40.1 °F 33.6 °F 30.0 °F 67% 29.93 in 10.0 mi NNW 10.4 mph 19.6 mph N/A   Clear
9:15 PM 40.1 °F 33.6 °F 29.8 °F 67% 29.93 in 10.0 mi NW 10.4 mph 21.9 mph N/A   Scattered Clouds
9:35 PM 39.6 °F 33.5 °F 29.7 °F 68% 29.93 in 10.0 mi NNW 9.2 mph 17.3 mph N/A   Scattered Clouds
9:55 PM 39.4 °F 32.7 °F 29.3 °F 67% 29.94 in 10.0 mi NW 10.4 mph 18.4 mph N/A   Mostly Cloudy
10:15 PM 39.4 °F 31.8 °F 29.3 °F 67% 29.94 in 10.0 mi NW 12.7 mph 24.2 mph N/A   Overcast
10:35 PM 38.5 °F 30.7 °F 28.9 °F 69% 29.94 in 10.0 mi NW 12.7 mph 20.7 mph N/A   Overcast
10:55 PM 37.6 °F 29.1 °F 28.4 °F 69% 29.93 in 10.0 mi NNW 13.8 mph 23.0 mph N/A   Scattered Clouds
11:15 PM 37.4 °F 28.5 °F 28.4 °F 70% 29.93 in 10.0 mi NNW 15.0 mph 25.3 mph N/A   Scattered Clouds
11:55 PM 36.5 °F 28.2 °F 28.4 °F 72% 29.92 in 10.0 mi NW 12.7 mph 20.7 mph N/A   Scattered Clouds